Time,TemperatureF,DewpointF,PressureIn,WindDirection,WindDirectionDegrees,WindSpeedMPH,WindSpeedGustMPH,Humidity,HourlyPrecipIn,Conditions,Clouds,dailyrainin,SoftwareType,DateUTC
2013-01-24 00:01:00,9.3,-6.3,30.17,WNW,292,5.0,13.0,48,0.00,,,0.00,meteohub,2013-01-24 05:01:00,
2013-01-24 00:02:00,9.3,-6.3,30.17,WNW,301,4.0,10.0,48,0.00,,,0.00,meteohub,2013-01-24 05:02:00,
2013-01-24 00:03:00,9.3,-6.3,30.17,WNW,290,6.0,10.0,48,0.00,,,0.00,meteohub,2013-01-24 05:03:00,
2013-01-24 00:08:00,9.1,-6.2,30.17,WNW,297,6.0,7.0,49,0.00,,,0.00,meteohub,2013-01-24 05:08:00,
2013-01-24 00:13:00,9.1,-6.5,30.17,NW,305,8.0,10.0,48,0.00,,,0.00,meteohub,2013-01-24 05:13:00,
2013-01-24 00:18:00,9.1,-6.2,30.17,NW,305,9.0,10.0,49,0.00,,,0.00,meteohub,2013-01-24 05:18:00,
2013-01-24 00:23:00,9.1,-6.5,30.17,WNW,291,6.0,13.0,48,0.00,,,0.00,meteohub,2013-01-24 05:23:00,
2013-01-24 00:28:00,9.1,-6.5,30.17,NW,308,6.0,16.0,48,0.00,,,0.00,meteohub,2013-01-24 05:28:00,
2013-01-24 00:33:00,9.0,-6.3,30.17,NW,314,2.0,16.0,49,0.00,,,0.00,meteohub,2013-01-24 05:33:00,
2013-01-24 00:38:00,9.0,-6.3,30.17,WNW,291,6.0,13.0,49,0.00,,,0.00,meteohub,2013-01-24 05:38:00,
2013-01-24 00:43:00,8.8,-6.5,30.17,WNW,301,2.0,11.0,49,0.00,,,0.00,meteohub,2013-01-24 05:43:00,
2013-01-24 00:48:00,8.8,-6.0,30.17,WNW,291,4.0,9.0,50,0.00,,,0.00,meteohub,2013-01-24 05:48:00,
2013-01-24 00:53:00,8.4,-6.3,30.17,NW,308,4.0,9.0,50,0.00,,,0.00,meteohub,2013-01-24 05:53:00,
2013-01-24 00:58:00,8.4,-6.0,30.17,WNW,290,5.0,7.0,51,0.00,,,0.00,meteohub,2013-01-24 05:58:00,
2013-01-24 01:03:00,8.2,-5.8,30.17,WNW,293,4.0,7.0,52,0.00,,,0.00,meteohub,2013-01-24 06:03:00,
2013-01-24 01:08:00,8.1,-6.0,30.17,WNW,287,2.0,6.0,52,0.00,,,0.00,meteohub,2013-01-24 06:08:00,
2013-01-24 01:13:00,8.1,-5.6,30.17,WNW,290,3.0,5.0,53,0.00,,,0.00,meteohub,2013-01-24 06:13:00,
2013-01-24 01:18:00,7.9,-5.6,30.17,WNW,303,2.0,6.0,53,0.00,,,0.00,meteohub,2013-01-24 06:18:00,
2013-01-24 01:23:00,7.9,-5.6,30.18,NW,308,3.0,7.0,53,0.00,,,0.00,meteohub,2013-01-24 06:23:00,
2013-01-24 01:28:00,7.9,-5.6,30.18,WNW,298,4.0,7.0,53,0.00,,,0.00,meteohub,2013-01-24 06:28:00,
2013-01-24 01:33:00,7.9,-5.6,30.17,NW,308,4.0,7.0,53,0.00,,,0.00,meteohub,2013-01-24 06:33:00,
2013-01-24 01:38:00,7.7,-5.8,30.17,WNW,291,1.0,7.0,53,0.00,,,0.00,meteohub,2013-01-24 06:38:00,
2013-01-24 01:43:00,7.5,-5.6,30.17,WNW,284,2.0,7.0,54,0.00,,,0.00,meteohub,2013-01-24 06:43:00,
2013-01-24 01:48:00,7.5,-5.6,30.18,WNW,283,0.0,6.0,54,0.00,,,0.00,meteohub,2013-01-24 06:48:00,
2013-01-24 01:53:00,7.3,-5.4,30.18,West,276,0.0,5.0,55,0.00,,,0.00,meteohub,2013-01-24 06:53:00,
2013-01-24 01:58:00,7.2,-5.3,30.17,WNW,290,0.0,3.0,56,0.00,,,0.00,meteohub,2013-01-24 06:58:00,
2013-01-24 02:03:00,7.2,-4.9,30.17,WNW,293,2.0,4.0,57,0.00,,,0.00,meteohub,2013-01-24 07:03:00,
2013-01-24 02:09:00,7.2,-4.9,30.17,NW,305,4.0,5.0,57,0.00,,,0.00,meteohub,2013-01-24 07:09:00,
2013-01-24 02:14:00,7.2,-5.3,30.17,WNW,283,2.0,5.0,56,0.00,,,0.00,meteohub,2013-01-24 07:14:00,
2013-01-24 02:19:00,7.2,-5.3,30.17,NW,305,1.0,6.0,56,0.00,,,0.00,meteohub,2013-01-24 07:19:00,
2013-01-24 02:24:00,7.2,-5.3,30.17,WNW,301,0.0,6.0,56,0.00,,,0.00,meteohub,2013-01-24 07:24:00,
2013-01-24 02:29:00,7.2,-5.3,30.17,NW,319,1.0,6.0,56,0.00,,,0.00,meteohub,2013-01-24 07:29:00,
2013-01-24 02:34:00,7.2,-5.3,30.17,WNW,290,1.0,4.0,56,0.00,,,0.00,meteohub,2013-01-24 07:34:00,
2013-01-24 02:39:00,7.0,-5.8,30.17,NW,313,5.0,5.0,55,0.00,,,0.00,meteohub,2013-01-24 07:39:00,
2013-01-24 02:44:00,7.0,-5.4,30.16,NW,314,3.0,7.0,56,0.00,,,0.00,meteohub,2013-01-24 07:44:00,
2013-01-24 02:49:00,7.0,-5.4,30.16,NW,310,2.0,7.0,56,0.00,,,0.00,meteohub,2013-01-24 07:49:00,
2013-01-24 02:54:00,6.8,-5.6,30.16,NW,325,2.0,7.0,56,0.00,,,0.00,meteohub,2013-01-24 07:54:00,
2013-01-24 02:59:00,6.6,-5.4,30.16,NW,319,3.0,7.0,57,0.00,,,0.00,meteohub,2013-01-24 07:59:00,
2013-01-24 03:04:00,6.6,-5.4,30.16,WNW,285,1.0,5.0,57,0.00,,,0.00,meteohub,2013-01-24 08:04:00,
2013-01-24 03:09:00,6.6,-5.4,30.15,WNW,290,2.0,6.0,57,0.00,,,0.00,meteohub,2013-01-24 08:09:00,
2013-01-24 03:14:00,6.6,-5.4,30.15,WNW,300,1.0,6.0,57,0.00,,,0.00,meteohub,2013-01-24 08:14:00,
2013-01-24 03:19:00,6.4,-5.6,30.15,WNW,295,3.0,7.0,57,0.00,,,0.00,meteohub,2013-01-24 08:19:00,
2013-01-24 03:24:00,6.4,-5.6,30.14,NW,305,2.0,7.0,57,0.00,,,0.00,meteohub,2013-01-24 08:24:00,
2013-01-24 03:29:00,6.3,-5.8,30.14,NW,314,6.0,9.0,57,0.00,,,0.00,meteohub,2013-01-24 08:29:00,
2013-01-24 03:34:00,6.3,-5.8,30.14,NW,322,3.0,9.0,57,0.00,,,0.00,meteohub,2013-01-24 08:34:00,
2013-01-24 03:39:00,6.3,-5.4,30.14,WNW,297,2.0,9.0,58,0.00,,,0.00,meteohub,2013-01-24 08:39:00,
2013-01-24 03:44:00,6.3,-5.4,30.14,WNW,292,3.0,8.0,58,0.00,,,0.00,meteohub,2013-01-24 08:44:00,
2013-01-24 03:49:00,6.1,-5.4,30.14,NW,308,2.0,7.0,58,0.00,,,0.00,meteohub,2013-01-24 08:49:00,
2013-01-24 03:54:00,6.1,-5.4,30.14,WNW,298,2.0,7.0,58,0.00,,,0.00,meteohub,2013-01-24 08:54:00,
2013-01-24 03:59:00,6.1,-5.4,30.14,WNW,291,3.0,7.0,58,0.00,,,0.00,meteohub,2013-01-24 08:59:00,
2013-01-24 04:04:00,6.1,-5.4,30.14,WNW,303,1.0,8.0,58,0.00,,,0.00,meteohub,2013-01-24 09:04:00,
2013-01-24 04:09:00,6.1,-5.4,30.14,NW,319,3.0,8.0,58,0.00,,,0.00,meteohub,2013-01-24 09:09:00,
2013-01-24 04:14:00,5.9,-5.3,30.14,NNW,332,0.0,8.0,59,0.00,,,0.00,meteohub,2013-01-24 09:14:00,
2013-01-24 04:19:00,5.5,-5.3,30.15,NNE,29,1.0,6.0,60,0.00,,,0.00,meteohub,2013-01-24 09:19:00,
2013-01-24 04:24:00,5.2,-5.6,30.15,North,359,3.0,6.0,60,0.00,,,0.00,meteohub,2013-01-24 09:24:00,
2013-01-24 04:29:00,5.0,-5.4,30.15,NNW,346,2.0,4.0,61,0.00,,,0.00,meteohub,2013-01-24 09:29:00,
2013-01-24 04:34:00,4.8,-5.3,30.15,NW,322,1.0,4.0,62,0.00,,,0.00,meteohub,2013-01-24 09:34:00,
2013-01-24 04:39:00,4.6,-5.3,30.15,WNW,300,2.0,4.0,63,0.00,,,0.00,meteohub,2013-01-24 09:39:00,
2013-01-24 04:44:00,4.6,-5.3,30.15,NW,308,0.0,3.0,63,0.00,,,0.00,meteohub,2013-01-24 09:44:00,
2013-01-24 04:50:00,4.6,-5.4,30.15,NW,316,1.0,3.0,62,0.00,,,0.00,meteohub,2013-01-24 09:50:00,
2013-01-24 04:55:00,4.5,-5.3,30.16,WNW,295,1.0,3.0,63,0.00,,,0.00,meteohub,2013-01-24 09:55:00,
2013-01-24 05:00:00,4.3,-5.4,30.16,NW,307,2.0,3.0,63,0.00,,,0.00,meteohub,2013-01-24 10:00:00,
2013-01-24 05:05:00,4.3,-5.4,30.16,NW,305,0.0,3.0,63,0.00,,,0.00,meteohub,2013-01-24 10:05:00,
2013-01-24 05:10:00,4.1,-5.4,30.16,NW,316,1.0,3.0,64,0.00,,,0.00,meteohub,2013-01-24 10:10:00,
2013-01-24 05:15:00,4.1,-5.6,30.15,NW,308,3.0,3.0,63,0.00,,,0.00,meteohub,2013-01-24 10:15:00,
2013-01-24 05:20:00,4.3,-5.4,30.15,WNW,301,3.0,4.0,63,0.00,,,0.00,meteohub,2013-01-24 10:20:00,
2013-01-24 05:25:00,4.5,-5.1,30.15,NW,316,3.0,7.0,64,0.00,,,0.00,meteohub,2013-01-24 10:25:00,
2013-01-24 05:30:00,4.6,-5.3,30.15,WNW,285,2.0,7.0,63,0.00,,,0.00,meteohub,2013-01-24 10:30:00,
2013-01-24 05:35:00,4.8,-5.3,30.16,NW,324,3.0,7.0,62,0.00,,,0.00,meteohub,2013-01-24 10:35:00,
2013-01-24 05:40:00,4.6,-5.4,30.15,NW,308,4.0,7.0,62,0.00,,,0.00,meteohub,2013-01-24 10:40:00,
2013-01-24 05:45:00,4.6,-5.8,30.15,WNW,298,4.0,8.0,61,0.00,,,0.00,meteohub,2013-01-24 10:45:00,
2013-01-24 05:50:00,4.6,-5.8,30.15,WNW,301,4.0,8.0,61,0.00,,,0.00,meteohub,2013-01-24 10:50:00,
2013-01-24 05:55:00,4.6,-5.8,30.15,NW,314,3.0,8.0,61,0.00,,,0.00,meteohub,2013-01-24 10:55:00,
2013-01-24 06:00:00,4.6,-5.8,30.15,WNW,298,3.0,8.0,61,0.00,,,0.00,meteohub,2013-01-24 11:00:00,
2013-01-24 06:05:00,4.5,-5.6,30.16,WNW,288,3.0,8.0,62,0.00,,,0.00,meteohub,2013-01-24 11:05:00,
2013-01-24 06:10:00,4.6,-5.4,30.16,NW,325,5.0,8.0,62,0.00,,,0.00,meteohub,2013-01-24 11:10:00,
2013-01-24 06:15:00,4.6,-5.4,30.16,NW,315,5.0,8.0,62,0.00,,,0.00,meteohub,2013-01-24 11:15:00,
2013-01-24 06:20:00,4.6,-5.4,30.16,NNW,340,4.0,8.0,62,0.00,,,0.00,meteohub,2013-01-24 11:20:00,
2013-01-24 06:25:00,4.6,-5.3,30.17,NW,321,4.0,7.0,63,0.00,,,0.00,meteohub,2013-01-24 11:25:00,
2013-01-24 06:30:00,4.5,-5.3,30.17,NNW,332,4.0,7.0,63,0.00,,,0.00,meteohub,2013-01-24 11:30:00,
2013-01-24 06:35:00,4.3,-5.4,30.17,NW,322,3.0,8.0,63,0.00,,,0.00,meteohub,2013-01-24 11:35:00,
2013-01-24 06:40:00,4.1,-5.6,30.17,WNW,297,6.0,8.0,63,0.00,,,0.00,meteohub,2013-01-24 11:40:00,
2013-01-24 06:45:00,3.9,-5.8,30.17,NNW,338,2.0,7.0,63,0.00,,,0.00,meteohub,2013-01-24 11:45:00,
2013-01-24 06:50:00,3.9,-5.8,30.17,West,275,3.0,7.0,63,0.00,,,0.00,meteohub,2013-01-24 11:50:00,
2013-01-24 06:55:00,3.7,-6.0,30.17,NW,308,1.0,8.0,63,0.00,,,0.00,meteohub,2013-01-24 11:55:00,
2013-01-24 07:00:00,3.7,-6.0,30.17,WNW,301,5.0,8.0,63,0.00,,,0.00,meteohub,2013-01-24 12:00:00,
2013-01-24 07:05:00,3.9,-5.8,30.17,NW,305,5.0,10.0,63,0.00,,,0.00,meteohub,2013-01-24 12:05:00,
2013-01-24 07:10:00,3.9,-5.8,30.17,WNW,297,3.0,10.0,63,0.00,,,0.00,meteohub,2013-01-24 12:10:00,
2013-01-24 07:15:00,4.1,-6.0,30.17,WNW,297,4.0,11.0,62,0.00,,,0.00,meteohub,2013-01-24 12:15:00,
2013-01-24 07:21:00,4.3,-5.8,30.17,WNW,298,7.0,11.0,62,0.00,,,0.00,meteohub,2013-01-24 12:21:00,
2013-01-24 07:26:00,4.5,-6.0,30.16,WNW,294,4.0,11.0,61,0.00,,,0.00,meteohub,2013-01-24 12:26:00,
2013-01-24 07:31:00,4.6,-5.8,30.17,NW,307,4.0,10.0,61,0.00,,,0.00,meteohub,2013-01-24 12:31:00,
2013-01-24 07:36:00,4.8,-5.6,30.17,NW,322,11.0,11.0,61,0.00,,,0.00,meteohub,2013-01-24 12:36:00,
2013-01-24 07:41:00,4.8,-5.6,30.17,NW,322,10.0,11.0,61,0.00,,,0.00,meteohub,2013-01-24 12:41:00,
2013-01-24 07:46:00,4.8,-5.6,30.16,North,352,5.0,14.0,61,0.00,,,0.00,meteohub,2013-01-24 12:46:00,
2013-01-24 07:51:00,5.2,-5.3,30.16,NNW,346,8.0,14.0,61,0.00,,,0.00,meteohub,2013-01-24 12:51:00,
2013-01-24 07:56:00,5.4,-5.8,30.16,NW,305,7.0,14.0,59,0.00,,,0.00,meteohub,2013-01-24 12:56:00,
2013-01-24 08:01:00,5.5,-5.6,30.16,WNW,288,8.0,13.0,59,0.00,,,0.00,meteohub,2013-01-24 13:01:00,
2013-01-24 08:06:00,5.9,-5.6,30.16,NW,311,8.0,16.0,58,0.00,,,0.00,meteohub,2013-01-24 13:06:00,
2013-01-24 08:11:00,6.3,-5.4,30.16,NW,316,8.0,16.0,58,0.00,,,0.00,meteohub,2013-01-24 13:11:00,
2013-01-24 08:16:00,6.4,-5.6,30.16,NW,311,11.0,15.0,57,0.00,,,0.00,meteohub,2013-01-24 13:16:00,
2013-01-24 08:21:00,6.6,-5.4,30.16,WNW,294,10.0,14.0,57,0.00,,,0.00,meteohub,2013-01-24 13:21:00,
2013-01-24 08:26:00,7.0,-5.4,30.16,NNW,338,7.0,14.0,56,0.00,,,0.00,meteohub,2013-01-24 13:26:00,
2013-01-24 08:31:00,7.2,-5.3,30.16,WNW,292,4.0,14.0,56,0.00,,,0.00,meteohub,2013-01-24 13:31:00,
2013-01-24 08:36:00,7.5,-4.9,30.16,WNW,298,7.0,14.0,56,0.00,,,0.00,meteohub,2013-01-24 13:36:00,
2013-01-24 08:41:00,7.9,-4.9,30.16,WNW,300,2.0,17.0,55,0.00,,,0.00,meteohub,2013-01-24 13:41:00,
2013-01-24 08:46:00,8.2,-4.9,30.16,NNW,338,11.0,17.0,54,0.00,,,0.00,meteohub,2013-01-24 13:46:00,
2013-01-24 08:51:00,8.4,-5.3,30.16,NNW,338,5.0,19.0,53,0.00,,,0.00,meteohub,2013-01-24 13:51:00,
2013-01-24 08:56:00,8.6,-5.4,30.16,NNW,328,12.0,19.0,52,0.00,,,0.00,meteohub,2013-01-24 13:56:00,
2013-01-24 09:01:00,9.0,-5.1,30.16,NW,319,14.0,19.0,52,0.00,,,0.00,meteohub,2013-01-24 14:01:00,
2013-01-24 09:06:00,9.1,-4.9,30.15,North,353,5.0,17.0,52,0.00,,,0.00,meteohub,2013-01-24 14:06:00,
2013-01-24 09:11:00,9.3,-5.1,30.15,NW,319,6.0,17.0,51,0.00,,,0.00,meteohub,2013-01-24 14:11:00,
2013-01-24 09:16:00,9.5,-5.4,30.16,NNW,348,7.0,16.0,50,0.00,,,0.00,meteohub,2013-01-24 14:16:00,
2013-01-24 09:21:00,9.7,-5.3,30.15,WNW,293,9.0,16.0,50,0.00,,,0.00,meteohub,2013-01-24 14:21:00,
2013-01-24 09:26:00,10.0,-4.9,30.15,WNW,295,7.0,14.0,50,0.00,,,0.00,meteohub,2013-01-24 14:26:00,
2013-01-24 09:31:00,10.6,-4.4,30.15,NW,308,8.0,13.0,50,0.00,,,0.00,meteohub,2013-01-24 14:31:00,
2013-01-24 09:36:00,10.6,-5.3,30.15,NW,305,8.0,15.0,48,0.00,,,0.00,meteohub,2013-01-24 14:36:00,
2013-01-24 09:41:00,10.8,-5.1,30.15,WNW,286,5.0,16.0,48,0.00,,,0.00,meteohub,2013-01-24 14:41:00,
2013-01-24 09:46:00,11.1,-5.6,30.15,NW,310,4.0,18.0,46,0.00,,,0.00,meteohub,2013-01-24 14:46:00,
2013-01-24 09:51:00,11.5,-5.3,30.15,NNW,328,9.0,18.0,46,0.00,,,0.00,meteohub,2013-01-24 14:51:00,
2013-01-24 09:56:00,11.7,-5.1,30.15,NW,318,13.0,18.0,46,0.00,,,0.00,meteohub,2013-01-24 14:56:00,
2013-01-24 10:01:00,11.8,-5.4,30.15,WNW,300,14.0,20.0,45,0.00,,,0.00,meteohub,2013-01-24 15:01:00,
2013-01-24 10:06:00,12.0,-6.2,30.15,North,350,16.0,20.0,43,0.00,,,0.00,meteohub,2013-01-24 15:06:00,
2013-01-24 10:11:00,12.2,-6.0,30.16,NW,308,13.0,20.0,43,0.00,,,0.00,meteohub,2013-01-24 15:11:00,
2013-01-24 10:16:00,12.0,-6.2,30.15,NNW,332,12.0,20.0,43,0.00,,,0.00,meteohub,2013-01-24 15:16:00,
2013-01-24 10:21:00,12.4,-5.8,30.15,North,349,12.0,20.0,43,0.00,,,0.00,meteohub,2013-01-24 15:21:00,
2013-01-24 10:26:00,12.6,-5.6,30.15,NW,321,11.0,18.0,43,0.00,,,0.00,meteohub,2013-01-24 15:26:00,
2013-01-24 10:31:00,12.7,-6.0,30.15,North,354,15.0,19.0,42,0.00,,,0.00,meteohub,2013-01-24 15:31:00,
2013-01-24 10:36:00,12.7,-6.5,30.15,NNW,342,8.0,20.0,41,0.00,,,0.00,meteohub,2013-01-24 15:36:00,
2013-01-24 10:41:00,12.9,-5.8,30.15,NNW,333,7.0,20.0,42,0.00,,,0.00,meteohub,2013-01-24 15:41:00,
2013-01-24 10:46:00,13.5,-5.4,30.15,NW,321,10.0,20.0,42,0.00,,,0.00,meteohub,2013-01-24 15:46:00,
2013-01-24 10:51:00,13.6,-5.6,30.15,NW,311,12.0,19.0,41,0.00,,,0.00,meteohub,2013-01-24 15:51:00,
2013-01-24 10:56:00,13.6,-6.2,30.14,NNW,347,14.0,19.0,40,0.00,,,0.00,meteohub,2013-01-24 15:56:00,
2013-01-24 11:01:00,13.8,-5.6,30.14,NNW,340,9.0,19.0,41,0.00,,,0.00,meteohub,2013-01-24 16:01:00,
2013-01-24 11:06:00,14.4,-5.1,30.14,NNW,328,6.0,19.0,41,0.00,,,0.00,meteohub,2013-01-24 16:06:00,
2013-01-24 11:11:00,14.9,-4.5,30.13,NW,308,10.0,19.0,41,0.00,,,0.00,meteohub,2013-01-24 16:11:00,
2013-01-24 11:16:00,14.7,-5.3,30.13,NW,305,8.0,19.0,40,0.00,,,0.00,meteohub,2013-01-24 16:16:00,
2013-01-24 11:21:00,14.9,-5.6,30.13,WNW,300,8.0,19.0,39,0.00,,,0.00,meteohub,2013-01-24 16:21:00,
2013-01-24 11:26:00,15.6,-4.4,30.13,WNW,298,10.0,19.0,40,0.00,,,0.00,meteohub,2013-01-24 16:26:00,
2013-01-24 11:31:00,15.6,-4.9,30.13,NW,308,8.0,17.0,39,0.00,,,0.00,meteohub,2013-01-24 16:31:00,
2013-01-24 11:37:00,15.8,-5.3,30.13,NW,323,9.0,19.0,38,0.00,,,0.00,meteohub,2013-01-24 16:37:00,
2013-01-24 11:41:00,15.6,-6.0,30.13,NW,319,13.0,22.0,37,0.00,,,0.00,meteohub,2013-01-24 16:41:00,
2013-01-24 11:47:00,15.8,-5.3,30.12,NW,321,14.0,22.0,38,0.00,,,0.00,meteohub,2013-01-24 16:47:00,
2013-01-24 11:52:00,16.2,-5.1,30.12,NNW,330,6.0,22.0,38,0.00,,,0.00,meteohub,2013-01-24 16:52:00,
2013-01-24 11:57:00,16.3,-5.4,30.12,North,352,14.0,19.0,37,0.00,,,0.00,meteohub,2013-01-24 16:57:00,
2013-01-24 12:02:00,16.3,-6.0,30.11,NW,323,8.0,21.0,36,0.00,,,0.00,meteohub,2013-01-24 17:02:00,
2013-01-24 12:07:00,16.5,-5.8,30.11,NNW,328,11.0,21.0,36,0.00,,,0.00,meteohub,2013-01-24 17:07:00,
2013-01-24 12:12:00,16.9,-4.9,30.11,NNW,342,6.0,21.0,37,0.00,,,0.00,meteohub,2013-01-24 17:12:00,
2013-01-24 12:17:00,17.2,-4.5,30.11,WNW,293,10.0,21.0,37,0.00,,,0.00,meteohub,2013-01-24 17:17:00,
2013-01-24 12:22:00,17.1,-5.3,30.11,NNW,342,10.0,19.0,36,0.00,,,0.00,meteohub,2013-01-24 17:22:00,
2013-01-24 12:27:00,17.1,-5.8,30.11,WNW,295,13.0,20.0,35,0.00,,,0.00,meteohub,2013-01-24 17:27:00,
2013-01-24 12:32:00,17.1,-5.8,30.11,NW,311,10.0,20.0,35,0.00,,,0.00,meteohub,2013-01-24 17:32:00,
2013-01-24 12:37:00,17.4,-4.4,30.11,WNW,290,7.0,20.0,37,0.00,,,0.00,meteohub,2013-01-24 17:37:00,
2013-01-24 12:42:00,17.4,-5.6,30.11,NW,314,6.0,20.0,35,0.00,,,0.00,meteohub,2013-01-24 17:42:00,
2013-01-24 12:47:00,17.4,-5.6,30.11,NNW,333,8.0,17.0,35,0.00,,,0.00,meteohub,2013-01-24 17:47:00,
2013-01-24 12:52:00,17.8,-5.3,30.11,NW,315,13.0,21.0,35,0.00,,,0.00,meteohub,2013-01-24 17:52:00,
2013-01-24 12:57:00,18.0,-5.1,30.11,NW,323,9.0,24.0,35,0.00,,,0.00,meteohub,2013-01-24 17:57:00,
2013-01-24 13:02:00,18.0,-5.1,30.11,NNE,20,3.0,24.0,35,0.00,,,0.00,meteohub,2013-01-24 18:02:00,
2013-01-24 13:07:00,18.3,-4.7,30.11,NW,304,12.0,24.0,35,0.00,,,0.00,meteohub,2013-01-24 18:07:00,
2013-01-24 13:12:00,18.1,-5.4,30.11,NNW,338,14.0,20.0,34,0.00,,,0.00,meteohub,2013-01-24 18:12:00,
2013-01-24 13:17:00,18.5,-4.5,30.11,NNW,338,7.0,19.0,35,0.00,,,0.00,meteohub,2013-01-24 18:17:00,
2013-01-24 13:22:00,18.3,-5.4,30.11,NW,308,7.0,23.0,34,0.00,,,0.00,meteohub,2013-01-24 18:22:00,
2013-01-24 13:27:00,18.9,-4.4,30.11,NNW,338,7.0,23.0,35,0.00,,,0.00,meteohub,2013-01-24 18:27:00,
2013-01-24 13:32:00,18.7,-5.1,30.11,NNW,334,7.0,23.0,34,0.00,,,0.00,meteohub,2013-01-24 18:32:00,
2013-01-24 13:37:00,18.7,-5.1,30.11,NW,322,14.0,21.0,34,0.00,,,0.00,meteohub,2013-01-24 18:37:00,
2013-01-24 13:42:00,18.7,-5.1,30.11,NW,307,10.0,21.0,34,0.00,,,0.00,meteohub,2013-01-24 18:42:00,
2013-01-24 13:47:00,18.9,-4.9,30.10,NW,318,20.0,21.0,34,0.00,,,0.00,meteohub,2013-01-24 18:47:00,
2013-01-24 13:52:00,19.0,-4.2,30.11,NW,318,9.0,24.0,35,0.00,,,0.00,meteohub,2013-01-24 18:52:00,
2013-01-24 13:57:00,19.2,-4.5,30.11,West,280,7.0,24.0,34,0.00,,,0.00,meteohub,2013-01-24 18:57:00,
2013-01-24 14:02:00,19.0,-5.3,30.11,West,266,6.0,24.0,33,0.00,,,0.00,meteohub,2013-01-24 19:02:00,
2013-01-24 14:07:00,19.4,-4.4,30.11,NNW,331,11.0,20.0,34,0.00,,,0.00,meteohub,2013-01-24 19:07:00,
2013-01-24 14:12:00,19.6,-4.2,30.11,NW,312,5.0,20.0,34,0.00,,,0.00,meteohub,2013-01-24 19:12:00,
2013-01-24 14:17:00,19.9,-4.0,30.11,NNW,333,9.0,19.0,34,0.00,,,0.00,meteohub,2013-01-24 19:17:00,
2013-01-24 14:22:00,19.9,-4.0,30.11,WNW,302,13.0,19.0,34,0.00,,,0.00,meteohub,2013-01-24 19:22:00,
2013-01-24 14:27:00,19.9,-4.5,30.11,WNW,295,12.0,18.0,33,0.00,,,0.00,meteohub,2013-01-24 19:27:00,
2013-01-24 14:32:00,20.3,-4.2,30.11,WNW,296,10.0,23.0,33,0.00,,,0.00,meteohub,2013-01-24 19:32:00,
2013-01-24 14:37:00,20.5,-4.7,30.12,NW,318,10.0,23.0,32,0.00,,,0.00,meteohub,2013-01-24 19:37:00,
2013-01-24 14:43:00,20.3,-5.4,30.12,NW,324,16.0,23.0,31,0.00,,,0.00,meteohub,2013-01-24 19:43:00,
2013-01-24 14:48:00,20.5,-4.7,30.12,NNW,334,13.0,23.0,32,0.00,,,0.00,meteohub,2013-01-24 19:48:00,
2013-01-24 14:53:00,20.5,-5.4,30.12,WNW,290,21.0,23.0,31,0.00,,,0.00,meteohub,2013-01-24 19:53:00,
2013-01-24 14:58:00,20.7,-4.5,30.12,WNW,294,7.0,24.0,32,0.00,,,0.00,meteohub,2013-01-24 19:58:00,
2013-01-24 15:03:00,20.7,-5.8,30.12,NW,304,11.0,24.0,30,0.00,,,0.00,meteohub,2013-01-24 20:03:00,
2013-01-24 15:08:00,20.7,-6.5,30.12,NW,316,11.0,27.0,29,0.00,,,0.00,meteohub,2013-01-24 20:08:00,
2013-01-24 15:13:00,20.7,-5.8,30.12,NW,318,13.0,27.0,30,0.00,,,0.00,meteohub,2013-01-24 20:13:00,
2013-01-24 15:18:00,20.8,-5.1,30.12,WNW,287,10.0,27.0,31,0.00,,,0.00,meteohub,2013-01-24 20:18:00,
2013-01-24 15:23:00,20.8,-5.8,30.13,WNW,302,11.0,23.0,30,0.00,,,0.00,meteohub,2013-01-24 20:23:00,
2013-01-24 15:28:00,20.8,-5.8,30.13,WNW,284,7.0,26.0,30,0.00,,,0.00,meteohub,2013-01-24 20:28:00,
2013-01-24 15:33:00,21.0,-5.6,30.13,WNW,302,11.0,26.0,30,0.00,,,0.00,meteohub,2013-01-24 20:33:00,
2013-01-24 15:38:00,21.0,-5.6,30.13,NNW,336,5.0,26.0,30,0.00,,,0.00,meteohub,2013-01-24 20:38:00,
2013-01-24 15:43:00,21.0,-5.6,30.13,WNW,295,13.0,20.0,30,0.00,,,0.00,meteohub,2013-01-24 20:43:00,
2013-01-24 15:48:00,20.7,-5.3,30.14,NNW,330,12.0,23.0,31,0.00,,,0.00,meteohub,2013-01-24 20:48:00,
2013-01-24 15:53:00,20.5,-4.0,30.14,NW,318,11.0,23.0,33,0.00,,,0.00,meteohub,2013-01-24 20:53:00,
2013-01-24 15:58:00,20.3,-4.2,30.14,West,280,10.0,23.0,33,0.00,,,0.00,meteohub,2013-01-24 20:58:00,
2013-01-24 16:03:00,19.9,-4.5,30.14,WNW,284,13.0,18.0,33,0.00,,,0.00,meteohub,2013-01-24 21:03:00,
2013-01-24 16:08:00,19.9,-4.0,30.14,WNW,287,8.0,19.0,34,0.00,,,0.00,meteohub,2013-01-24 21:08:00,
2013-01-24 16:13:00,19.8,-4.7,30.15,WNW,301,6.0,19.0,33,0.00,,,0.00,meteohub,2013-01-24 21:13:00,
2013-01-24 16:18:00,19.6,-3.6,30.14,WNW,294,5.0,19.0,35,0.00,,,0.00,meteohub,2013-01-24 21:18:00,
2013-01-24 16:23:00,19.4,-4.4,30.15,NW,308,9.0,22.0,34,0.00,,,0.00,meteohub,2013-01-24 21:23:00,
2013-01-24 16:28:00,19.2,-5.3,30.15,WNW,295,17.0,22.0,33,0.00,,,0.00,meteohub,2013-01-24 21:28:00,
2013-01-24 16:33:00,19.0,-5.3,30.15,WNW,285,12.0,20.0,33,0.00,,,0.00,meteohub,2013-01-24 21:33:00,
2013-01-24 16:38:00,18.9,-4.9,30.16,WNW,298,16.0,19.0,34,0.00,,,0.00,meteohub,2013-01-24 21:38:00,
2013-01-24 16:43:00,18.9,-4.9,30.16,NW,316,11.0,19.0,34,0.00,,,0.00,meteohub,2013-01-24 21:43:00,
2013-01-24 16:48:00,18.5,-5.3,30.16,WNW,297,11.0,23.0,34,0.00,,,0.00,meteohub,2013-01-24 21:48:00,
2013-01-24 16:54:00,18.3,-4.7,30.17,WNW,298,10.0,23.0,35,0.00,,,0.00,meteohub,2013-01-24 21:54:00,
2013-01-24 16:59:00,18.1,-4.9,30.17,WNW,285,4.0,23.0,35,0.00,,,0.00,meteohub,2013-01-24 21:59:00,
2013-01-24 17:04:00,18.1,-4.9,30.17,WNW,302,14.0,16.0,35,0.00,,,0.00,meteohub,2013-01-24 22:04:00,
2013-01-24 17:09:00,18.1,-4.9,30.17,NW,314,6.0,18.0,35,0.00,,,0.00,meteohub,2013-01-24 22:09:00,
2013-01-24 17:14:00,18.1,-4.9,30.18,NW,324,7.0,21.0,35,0.00,,,0.00,meteohub,2013-01-24 22:14:00,
2013-01-24 17:19:00,18.0,-5.1,30.18,NW,305,13.0,21.0,35,0.00,,,0.00,meteohub,2013-01-24 22:19:00,
2013-01-24 17:24:00,18.0,-4.5,30.18,WNW,300,8.0,21.0,36,0.00,,,0.00,meteohub,2013-01-24 22:24:00,
2013-01-24 17:29:00,18.0,-5.1,30.18,WNW,297,9.0,15.0,35,0.00,,,0.00,meteohub,2013-01-24 22:29:00,
2013-01-24 17:34:00,18.0,-4.5,30.18,NNW,328,6.0,19.0,36,0.00,,,0.00,meteohub,2013-01-24 22:34:00,
2013-01-24 17:39:00,18.0,-4.0,30.19,NW,324,12.0,19.0,37,0.00,,,0.00,meteohub,2013-01-24 22:39:00,
2013-01-24 17:44:00,18.0,-4.0,30.19,WNW,290,7.0,19.0,37,0.00,,,0.00,meteohub,2013-01-24 22:44:00,
2013-01-24 17:49:00,18.0,-4.0,30.19,West,280,8.0,15.0,37,0.00,,,0.00,meteohub,2013-01-24 22:49:00,
2013-01-24 17:54:00,18.0,-4.0,30.19,NW,322,3.0,14.0,37,0.00,,,0.00,meteohub,2013-01-24 22:54:00,
2013-01-24 17:59:00,17.8,-3.5,30.20,West,281,3.0,14.0,38,0.00,,,0.00,meteohub,2013-01-24 22:59:00,
2013-01-24 18:04:00,17.6,-3.6,30.20,WNW,301,5.0,14.0,38,0.00,,,0.00,meteohub,2013-01-24 23:04:00,
2013-01-24 18:09:00,17.8,-4.0,30.20,WNW,290,10.0,10.0,37,0.00,,,0.00,meteohub,2013-01-24 23:09:00,
2013-01-24 18:14:00,18.0,-5.1,30.20,NNW,338,9.0,17.0,35,0.00,,,0.00,meteohub,2013-01-24 23:14:00,
2013-01-24 18:19:00,17.8,-5.3,30.20,NW,317,6.0,23.0,35,0.00,,,0.00,meteohub,2013-01-24 23:19:00,
2013-01-24 18:24:00,17.8,-5.3,30.21,WNW,298,3.0,23.0,35,0.00,,,0.00,meteohub,2013-01-24 23:24:00,
2013-01-24 18:29:00,17.4,-4.9,30.21,NW,324,5.0,18.0,36,0.00,,,0.00,meteohub,2013-01-24 23:29:00,
2013-01-24 18:34:00,17.2,-4.5,30.21,NW,305,6.0,18.0,37,0.00,,,0.00,meteohub,2013-01-24 23:34:00,
2013-01-24 18:39:00,17.2,-4.5,30.21,WNW,298,7.0,12.0,37,0.00,,,0.00,meteohub,2013-01-24 23:39:00,
2013-01-24 18:44:00,17.1,-4.7,30.21,NW,319,7.0,13.0,37,0.00,,,0.00,meteohub,2013-01-24 23:44:00,
2013-01-24 18:49:00,16.9,-4.9,30.22,WNW,302,12.0,13.0,37,0.00,,,0.00,meteohub,2013-01-24 23:49:00,
2013-01-24 18:54:00,16.9,-5.4,30.22,WNW,298,10.0,13.0,36,0.00,,,0.00,meteohub,2013-01-24 23:54:00,
2013-01-24 18:59:00,16.7,-5.6,30.22,WNW,300,9.0,15.0,36,0.00,,,0.00,meteohub,2013-01-24 23:59:00,
2013-01-24 19:04:00,16.7,-6.2,30.22,WNW,301,13.0,16.0,35,0.00,,,0.00,meteohub,2013-01-25 00:04:00,
2013-01-24 19:09:00,16.7,-6.2,30.22,WNW,300,13.0,16.0,35,0.00,,,0.00,meteohub,2013-01-25 00:09:00,
2013-01-24 19:14:00,16.5,-6.3,30.22,NW,306,16.0,28.0,35,0.00,,,0.00,meteohub,2013-01-25 00:14:00,
2013-01-24 19:19:00,16.3,-6.5,30.22,NW,308,7.0,28.0,35,0.00,,,0.00,meteohub,2013-01-25 00:19:00,
2013-01-24 19:24:00,16.3,-6.5,30.23,WNW,300,13.0,28.0,35,0.00,,,0.00,meteohub,2013-01-25 00:24:00,
2013-01-24 19:29:00,16.2,-7.2,30.23,WNW,296,19.0,19.0,34,0.00,,,0.00,meteohub,2013-01-25 00:29:00,
2013-01-24 19:34:00,16.2,-6.7,30.23,NW,321,14.0,22.0,35,0.00,,,0.00,meteohub,2013-01-25 00:34:00,
2013-01-24 19:39:00,16.0,-6.9,30.23,WNW,300,16.0,22.0,35,0.00,,,0.00,meteohub,2013-01-25 00:39:00,
2013-01-24 19:44:00,16.0,-7.4,30.23,West,274,21.0,22.0,34,0.00,,,0.00,meteohub,2013-01-25 00:44:00,
2013-01-24 19:49:00,16.0,-7.4,30.23,WNW,298,13.0,25.0,34,0.00,,,0.00,meteohub,2013-01-25 00:49:00,
2013-01-24 19:54:00,15.8,-7.1,30.23,WNW,300,13.0,25.0,35,0.00,,,0.00,meteohub,2013-01-25 00:54:00,
2013-01-24 19:59:00,15.6,-6.5,30.23,NW,305,7.0,25.0,36,0.00,,,0.00,meteohub,2013-01-25 00:59:00,
2013-01-24 20:04:00,15.6,-6.5,30.23,West,274,7.0,19.0,36,0.00,,,0.00,meteohub,2013-01-25 01:04:00,
2013-01-24 20:09:00,15.6,-7.2,30.23,NW,326,16.0,18.0,35,0.00,,,0.00,meteohub,2013-01-25 01:09:00,
2013-01-24 20:14:00,15.6,-6.5,30.23,WNW,300,13.0,19.0,36,0.00,,,0.00,meteohub,2013-01-25 01:14:00,
2013-01-24 20:19:00,15.6,-6.5,30.24,NW,319,8.0,21.0,36,0.00,,,0.00,meteohub,2013-01-25 01:19:00,
2013-01-24 20:24:00,15.4,-6.7,30.24,West,281,9.0,23.0,36,0.00,,,0.00,meteohub,2013-01-25 01:24:00,
2013-01-24 20:29:00,15.4,-6.2,30.24,NW,319,8.0,23.0,37,0.00,,,0.00,meteohub,2013-01-25 01:29:00,
2013-01-24 20:34:00,15.3,-6.3,30.24,WNW,294,13.0,23.0,37,0.00,,,0.00,meteohub,2013-01-25 01:34:00,
2013-01-24 20:40:00,15.3,-6.3,30.24,WNW,288,13.0,16.0,37,0.00,,,0.00,meteohub,2013-01-25 01:40:00,
2013-01-24 20:45:00,15.1,-6.5,30.25,NW,313,8.0,18.0,37,0.00,,,0.00,meteohub,2013-01-25 01:45:00,
2013-01-24 20:50:00,15.1,-6.5,30.25,NW,319,5.0,18.0,37,0.00,,,0.00,meteohub,2013-01-25 01:50:00,
2013-01-24 20:55:00,14.9,-6.7,30.25,NW,308,11.0,18.0,37,0.00,,,0.00,meteohub,2013-01-25 01:55:00,
2013-01-24 21:00:00,14.7,-6.3,30.25,West,281,16.0,21.0,38,0.00,,,0.00,meteohub,2013-01-25 02:00:00,
2013-01-24 21:05:00,14.7,-6.3,30.25,WNW,286,21.0,21.0,38,0.00,,,0.00,meteohub,2013-01-25 02:05:00,
2013-01-24 21:10:00,14.7,-6.3,30.25,NW,306,7.0,21.0,38,0.00,,,0.00,meteohub,2013-01-25 02:10:00,
2013-01-24 21:15:00,14.5,-6.5,30.25,NW,306,12.0,24.0,38,0.00,,,0.00,meteohub,2013-01-25 02:15:00,
2013-01-24 21:20:00,14.4,-6.7,30.25,NW,314,13.0,24.0,38,0.00,,,0.00,meteohub,2013-01-25 02:20:00,
2013-01-24 21:25:00,14.4,-6.2,30.25,NW,307,8.0,24.0,39,0.00,,,0.00,meteohub,2013-01-25 02:25:00,
2013-01-24 21:30:00,14.4,-6.2,30.25,NW,316,16.0,22.0,39,0.00,,,0.00,meteohub,2013-01-25 02:30:00,
2013-01-24 21:35:00,14.2,-5.8,30.25,WNW,300,4.0,22.0,40,0.00,,,0.00,meteohub,2013-01-25 02:35:00,
2013-01-24 21:40:00,14.0,-5.4,30.25,NW,306,13.0,22.0,41,0.00,,,0.00,meteohub,2013-01-25 02:40:00,
2013-01-24 21:45:00,13.8,-5.6,30.25,NNW,345,6.0,23.0,41,0.00,,,0.00,meteohub,2013-01-25 02:45:00,
2013-01-24 21:50:00,13.8,-5.1,30.26,WNW,300,19.0,23.0,42,0.00,,,0.00,meteohub,2013-01-25 02:50:00,
2013-01-24 21:55:00,13.8,-4.5,30.26,NW,305,10.0,23.0,43,0.00,,,0.00,meteohub,2013-01-25 02:55:00,
2013-01-24 22:00:00,13.8,-4.5,30.26,West,281,9.0,20.0,43,0.00,,,0.00,meteohub,2013-01-25 03:00:00,
2013-01-24 22:05:00,13.6,-4.2,30.27,WNW,292,18.0,19.0,44,0.00,,,0.00,meteohub,2013-01-25 03:05:00,
2013-01-24 22:10:00,13.6,-3.3,30.27,NW,314,7.0,22.0,46,0.00,,,0.00,meteohub,2013-01-25 03:10:00,
2013-01-24 22:15:00,13.6,-3.3,30.27,WNW,300,11.0,22.0,46,0.00,,,0.00,meteohub,2013-01-25 03:15:00,
2013-01-24 22:20:00,13.6,-2.9,30.27,NW,305,13.0,22.0,47,0.00,,,0.00,meteohub,2013-01-25 03:20:00,
2013-01-24 22:25:00,13.5,-2.6,30.26,WNW,298,13.0,23.0,48,0.00,,,0.00,meteohub,2013-01-25 03:25:00,
2013-01-24 22:30:00,13.5,-2.2,30.26,WSW,253,10.0,23.0,49,0.00,,,0.00,meteohub,2013-01-25 03:30:00,
2013-01-24 22:35:00,13.3,-2.4,30.26,WNW,302,2.0,23.0,49,0.00,,,0.00,meteohub,2013-01-25 03:35:00,
2013-01-24 22:40:00,13.3,-1.8,30.27,NW,305,6.0,18.0,50,0.00,,,0.00,meteohub,2013-01-25 03:40:00,
2013-01-24 22:45:00,13.3,-1.8,30.27,WNW,301,10.0,17.0,50,0.00,,,0.00,meteohub,2013-01-25 03:45:00,
2013-01-24 22:50:00,13.5,-1.7,30.27,NW,311,7.0,23.0,50,0.00,,,0.00,meteohub,2013-01-25 03:50:00,
2013-01-24 22:56:00,13.3,-1.5,30.28,WNW,284,6.0,23.0,51,0.00,,,0.00,meteohub,2013-01-25 03:56:00,
2013-01-24 23:01:00,13.3,-1.1,30.28,NW,308,8.0,23.0,52,0.00,,,0.00,meteohub,2013-01-25 04:01:00,
2013-01-24 23:06:00,13.3,-1.1,30.28,WNW,302,7.0,17.0,52,0.00,,,0.00,meteohub,2013-01-25 04:06:00,
2013-01-24 23:11:00,13.1,-1.3,30.28,WNW,288,8.0,16.0,52,0.00,,,0.00,meteohub,2013-01-25 04:11:00,
2013-01-24 23:16:00,13.1,-0.8,30.28,WNW,301,6.0,16.0,53,0.00,,,0.00,meteohub,2013-01-25 04:16:00,
2013-01-24 23:21:00,13.1,-0.8,30.29,NW,314,7.0,15.0,53,0.00,,,0.00,meteohub,2013-01-25 04:21:00,
2013-01-24 23:26:00,13.1,-0.4,30.29,WNW,284,6.0,15.0,54,0.00,,,0.00,meteohub,2013-01-25 04:26:00,
2013-01-24 23:31:00,13.1,-0.4,30.29,West,278,7.0,15.0,54,0.00,,,0.00,meteohub,2013-01-25 04:31:00,
2013-01-24 23:36:00,13.1,-0.4,30.29,NNW,328,8.0,16.0,54,0.00,,,0.00,meteohub,2013-01-25 04:36:00,
2013-01-24 23:41:00,13.1,-0.4,30.30,WNW,292,7.0,16.0,54,0.00,,,0.00,meteohub,2013-01-25 04:41:00,
2013-01-24 23:46:00,12.9,-0.6,30.29,WNW,290,13.0,13.0,54,0.00,,,0.00,meteohub,2013-01-25 04:46:00,
2013-01-24 23:51:00,12.9,-0.6,30.30,NW,310,4.0,13.0,54,0.00,,,0.00,meteohub,2013-01-25 04:51:00,
2013-01-24 23:56:00,12.9,-0.2,30.30,WNW,291,4.0,13.0,55,0.00,,,0.00,meteohub,2013-01-25 04:56:00,